Abilene, TX

7:43 AM CDT on October 23, 2017 (GMT -0500)
Abilene Regional

Weather History for KABI - December, 2010

Change the Weather History Date:

Thursday, December 30, 2010

  Actual Average Record
Temperature  
Mean Temperature 62 °F 44 °F  
Max Temperature 71 °F 56 °F 82 °F (1951)
Min Temperature 52 °F 33 °F 10 °F (1983)
Degree Days  
Heating Degree Days 3 21  
Month to date heating degree days 477 591  
Since 1 July heating degree days 804 1024  
Cooling Degree Days 0 0  
Month to date cooling degree days 5 0  
Year to date cooling degree days 2669 2408  
Growing Degree Days 12 (Base 50)    
Moisture  
Dew Point 40 °F    
Average Humidity 49    
Maximum Humidity 77    
Minimum Humidity 20    
Precipitation  
Precipitation 0.00 in 0.03 in 1.90 in (1896)
Month to date precipitation 1.20 1.19  
Year to date precipitation 27.79 24.78  
Sea Level Pressure  
Sea Level Pressure 29.48 in    
Wind  
Wind Speed 11 mph (South)    
Max Wind Speed 21 mph    
Max Gust Speed 25 mph    
Visibility 10 miles    
Events      
T = Trace of Precipitation, MM = Missing Value Source: NWS Daily Summary

Daily Weather History Graph

Daily Weather History Graph

Search for Another Location

Airport or City:

Trip Planner

Search our weather history database for the weather conditions in past years. The results will help you decide how hot, cold, wet, or windy it might be!

Date:

Astronomy

Dec. 30, 2010 Rise Set
Actual Time 7:39 AM CST 5:42 PM CST
Civil Twilight 7:12 AM CST 6:10 PM CST
Nautical Twilight 6:42 AM CST 6:40 PM CST
Astronomical Twilight 6:12 AM CST 7:10 PM CST
Moon 3:05 AM CST (12/30) 1:47 PM CST (12/30)
Length of Visible Light 10h 57m
Length of Day
10h 03m
Waning Crescent, 23% of the Moon is Illuminated
Dec 30
Waning Crescent
Jan 4
New
Jan 12
First Quarter
Jan 19
Full
Jan 26
Last Quarter

Hourly Weather History & Observations

Time (CST) Temp. Dew Point Humidity Pressure Visibility Wind Dir Wind Speed Gust Speed Precip Events Conditions
12:52 AM 54.0 °F 41.0 °F 62% 29.50 in 10.0 mi SSW 8.1 mph - N/A   Clear
1:52 AM 53.1 °F 43.0 °F 69% 29.49 in 10.0 mi SSE 9.2 mph - N/A   Clear
2:52 AM 55.9 °F 45.0 °F 67% 29.47 in 10.0 mi South 12.7 mph - N/A   Clear
3:52 AM 55.0 °F 46.0 °F 72% 29.47 in 10.0 mi South 15.0 mph - N/A   Clear
4:52 AM 55.9 °F 44.1 °F 64% 29.47 in 10.0 mi South 11.5 mph - N/A   Clear
5:52 AM 55.9 °F 44.1 °F 64% 29.49 in 10.0 mi South 12.7 mph - N/A   Clear
6:52 AM 53.1 °F 43.0 °F 69% 29.53 in 10.0 mi SSW 8.1 mph - N/A   Clear
7:52 AM 53.1 °F 41.0 °F 64% 29.55 in 10.0 mi SSW 6.9 mph - N/A   Clear
8:52 AM 54.0 °F 39.9 °F 59% 29.57 in 10.0 mi South 5.8 mph - N/A   Clear
9:52 AM 57.9 °F 39.9 °F 51% 29.57 in 10.0 mi South 10.4 mph - N/A   Clear
10:52 AM 61.0 °F 37.0 °F 41% 29.58 in 10.0 mi SW 10.4 mph - N/A   Clear
11:52 AM 66.0 °F 35.1 °F 32% 29.55 in 10.0 mi WSW 6.9 mph - N/A   Clear
12:52 PM 69.1 °F 28.9 °F 22% 29.51 in 10.0 mi SW 13.8 mph - N/A   Clear
1:52 PM 71.1 °F 28.9 °F 21% 29.47 in 10.0 mi WSW 9.2 mph - N/A   Clear
2:52 PM 71.1 °F 28.9 °F 21% 29.44 in 10.0 mi South 9.2 mph - N/A   Clear
3:52 PM 71.1 °F 32.0 °F 24% 29.43 in 10.0 mi South 9.2 mph - N/A   Clear
4:52 PM 69.1 °F 28.9 °F 22% 29.42 in 10.0 mi South 9.2 mph - N/A   Clear
5:52 PM 61.0 °F 33.1 °F 35% 29.43 in 10.0 mi SE 9.2 mph - N/A   Clear
6:52 PM 57.0 °F 39.0 °F 51% 29.46 in 10.0 mi SE 11.5 mph - N/A   Clear
7:52 PM 57.9 °F 45.0 °F 62% 29.44 in 10.0 mi SE 16.1 mph - N/A   Clear
8:52 PM 57.9 °F 46.0 °F 65% 29.42 in 10.0 mi SSE 17.3 mph - N/A   Clear
9:52 PM 57.0 °F 50.0 °F 77% 29.41 in 10.0 mi SSE 16.1 mph - N/A   Clear
10:52 PM 59.0 °F 48.9 °F 69% 29.42 in 10.0 mi South 15.0 mph - N/A   Clear
11:52 PM 59.0 °F 48.9 °F 69% 29.43 in 10.0 mi South 15.0 mph - N/A   Clear